[[{"header":{"parameterUnit":"m.s-1","parameterCategory":1,"la1":30.2991,"la2":30.254,"lo1":-89.0895,"lo2":-89.0444,"dy":0.0017,"dx":0.0017,"nx":28,"ny":28,"refTime":"2025-03-13T09:00:00:Z","depth":0,"parameterNumber":2,"parameterNumberName":"U-component_of_WINDS"},"data":[0,0,0,0,0,0,0,0,0,0,0,0,0,0,0,0,0,0,0,0,0,0,0,0,0,0,0,0,0,0,0,0,0,0,0,0,0,0,0,0,0,0,0,0,0,0,0,0,0,0,0,0,0,0,0,0,0,0,-1.1222,-1.1223,0,-1.1266,-1.1266,-1.1267,-1.1284,-1.1284,-1.1284,-1.1283,-1.1327,-1.1329,-1.133,0,0,0,0,0,0,0,0,0,0,0,0,0,-1.1154,-1.1155,-1.1222,-1.1223,-1.1223,-1.1265,-1.1266,-1.1267,-1.1284,-1.1284,-1.1284,-1.1283,-1.1327,-1.1328,-1.133,0,0,0,0,0,0,0,0,0,0,0,0,0,-1.1189,-1.1155,-1.1222,-1.1237,-1.1239,-1.1265,-1.1266,-1.1267,-1.1284,-1.1284,-1.1284,-1.1283,-1.1326,-1.1328,-1.133,-1.1345,0,0,-1.1336,-1.1337,0,0,0,0,0,0,0,0,-1.1187,-1.1192,-1.1234,-1.1236,-1.1238,-1.1269,-1.1258,-1.1293,-1.1284,-1.1267,-1.1283,-1.1283,-1.1308,-1.1311,-1.132,-1.1347,-1.1349,-1.1336,-1.1337,-1.1338,-1.1339,0,0,0,0,0,0,0,-1.1185,-1.119,-1.1239,-1.1235,-1.1237,-1.1241,-1.1246,-1.1265,-1.1288,-1.1268,-1.127,-1.1274,-1.1309,-1.1318,-1.1321,-1.135,-1.1336,-1.1338,-1.1339,-1.134,-1.1391,-1.1391,0,0,0,0,0,0,-1.118,-1.1188,-1.1238,-1.1241,-1.1212,-1.1243,-1.1248,-1.1259,-1.1288,-1.1292,-1.1275,-1.1275,-1.1315,-1.1319,-1.1323,-1.1342,-1.1338,-1.134,-1.1341,-1.1391,-1.1391,-1.1391,0,0,0,0,0,0,-1.1178,-1.1184,-1.1236,-1.1215,-1.1221,-1.1244,-1.1256,-1.126,-1.1269,-1.1292,-1.1297,-1.128,-1.1315,-1.132,-1.1339,-1.1344,-1.1341,-1.1343,-1.1391,-1.1391,-1.1391,-1.138,0,0,0,0,0,0,-1.1176,-1.1183,-1.1189,-1.1215,-1.1223,-1.1252,-1.1257,-1.1261,-1.1273,-1.1274,-1.1298,-1.1302,-1.1315,-1.1336,-1.1341,-1.1346,-1.1344,-1.139,-1.1391,-1.1391,-1.1381,-1.138,-1.138,0,0,0,0,0,-1.1174,-1.1185,-1.119,-1.1196,-1.1231,-1.1253,-1.1257,-1.1272,-1.1273,-1.1279,-1.1294,-1.1301,-1.1342,-1.1338,-1.1344,-1.1349,-1.139,-1.1391,-1.1391,-1.1381,-1.138,-1.138,0,0,0,0,0,0,-1.116,-1.1188,-1.1194,-1.1214,-1.123,-1.1255,-1.1264,-1.1271,-1.1288,-1.1289,-1.1307,-1.1312,-1.133,-1.1342,-1.1336,-1.1365,-1.1367,-1.1368,-1.1357,-1.1357,-1.1357,-1.1353,-1.1346,0,0,0,0,0,-1.1159,-1.1174,-1.1198,-1.1213,-1.1221,-1.1241,-1.1251,-1.1261,-1.1279,-1.1287,-1.1303,-1.132,-1.1337,-1.1348,-1.1364,-1.1382,-1.1388,-1.1389,-1.1389,-1.1388,-1.139,-1.14,-1.14,-1.1393,-1.1393,-1.1393,0,0,-1.1157,-1.1175,-1.1183,-1.1211,-1.1225,-1.1241,-1.1247,-1.1263,-1.1275,-1.1289,-1.1308,-1.1321,-1.1341,-1.136,-1.1369,-1.137,-1.1393,-1.1389,-1.1389,-1.139,-1.14,-1.1401,-1.1402,-1.1393,-1.1393,-1.1393,0,0,-1.1162,-1.1177,-1.1191,-1.1205,-1.1227,-1.124,-1.1243,-1.1267,-1.1275,-1.1295,-1.1306,-1.132,-1.1349,-1.1363,-1.1373,-1.1383,-1.1391,-1.1388,-1.1387,-1.1397,-1.1398,-1.1398,-1.1401,-1.1402,-1.1389,-1.1389,-1.1389,0,-1.1157,-1.1181,-1.1197,-1.1213,-1.1224,-1.1238,-1.1252,-1.1265,-1.1291,-1.1298,-1.1299,-1.1336,-1.135,-1.1372,-1.1374,-1.1383,-1.1387,-1.1385,-1.1396,-1.1397,-1.1398,-1.1401,-1.1402,-1.1389,-1.1389,-1.1389,-1.1389,0,-1.1174,-1.1191,-1.1199,-1.1224,-1.1236,-1.1251,-1.1269,-1.128,-1.1289,-1.1301,-1.1321,-1.1339,-1.1359,-1.1365,-1.1374,-1.1389,-1.1389,-1.1393,-1.1395,-1.1398,-1.1401,-1.1403,-1.1388,-1.1388,-1.1388,-1.1389,0,0,-1.1172,-1.1205,-1.1208,-1.1219,-1.1243,-1.1256,-1.1271,-1.1291,-1.13,-1.1318,-1.1331,-1.1354,-1.1358,-1.137,-1.1381,-1.1389,-1.1396,-1.1393,-1.1393,-1.1392,-1.1412,-1.1409,-1.141,-1.1401,-1.1401,-1.1401,-1.1411,0,-1.118,-1.1208,-1.1222,-1.1244,-1.1259,-1.1272,-1.1285,-1.1301,-1.1314,-1.1328,-1.1342,-1.1358,-1.1362,-1.137,-1.1379,-1.1393,-1.14,-1.1393,-1.1413,-1.1413,-1.1407,-1.1412,-1.1409,-1.1416,-1.1412,-1.1412,-1.1412,0,-1.1193,-1.121,-1.1233,-1.1256,-1.1263,-1.1274,-1.1294,-1.1308,-1.1326,-1.1334,-1.1348,-1.1358,-1.1374,-1.1375,-1.1398,-1.1392,-1.1401,-1.141,-1.141,-1.1413,-1.1413,-1.1414,-1.1419,-1.142,-1.1415,-1.1415,-1.1414,0,-1.1189,-1.1217,-1.1235,-1.1244,-1.1271,-1.1279,-1.129,-1.1309,-1.132,-1.1337,-1.1344,-1.1363,-1.1373,-1.1387,-1.1402,-1.1401,-1.1422,-1.1424,-1.143,-1.1429,-1.1434,-1.1433,-1.144,-1.144,-1.1439,-1.1439,-1.1439,0,-1.1196,-1.121,-1.1233,-1.1244,-1.1259,-1.1276,-1.1291,-1.1303,-1.1319,-1.1333,-1.1345,-1.1357,-1.1376,-1.1391,-1.1402,-1.1419,-1.1423,-1.143,-1.1433,-1.1429,-1.1428,-1.1435,-1.1435,-1.144,-1.144,-1.144,-1.144,0,-1.1194,-1.121,-1.123,-1.1254,-1.126,-1.127,-1.129,-1.1301,-1.1314,-1.133,-1.1335,-1.1355,-1.1373,-1.1389,-1.1412,-1.142,-1.1437,-1.1441,-1.1431,-1.1432,-1.1436,-1.1436,-1.1448,-1.145,-1.1448,-1.1448,-1.1448,0,-1.1198,-1.1208,-1.1233,-1.1243,-1.1254,-1.1269,-1.1281,-1.1297,-1.1308,-1.133,-1.1338,-1.1357,-1.1373,-1.14,-1.1417,-1.1434,-1.1439,-1.1442,-1.1441,-1.1437,-1.1439,-1.1438,-1.1439,-1.1441,-1.1441,-1.1441,-1.1441,0,-1.1202,-1.121,-1.1225,-1.1244,-1.1257,-1.1273,-1.1288,-1.1296,-1.1315,-1.1327,-1.1345,-1.1357,-1.1381,-1.1399,-1.1419,-1.1431,-1.1439,-1.1441,-1.1443,-1.1439,-1.1433,-1.1436,-1.143,-1.1441,-1.1441,-1.1441,-1.1441,-1.1441,-1.1203,-1.1213,-1.1232,-1.1249,-1.1262,-1.1277,-1.1288,-1.1302,-1.1318,-1.1338,-1.1347,-1.1365,-1.1384,-1.1411,-1.1423,-1.1437,-1.1439,-1.1442,-1.1443,-1.1443,-1.1442,-1.1431,-1.1441,-1.1441,-1.1441,-1.1441,-1.1441,0,-1.1208,-1.1221,-1.1236,-1.1258,-1.1271,-1.1278,-1.1296,-1.1307,-1.1323,-1.1339,-1.1354,-1.1375,-1.1392,-1.141,-1.1429,-1.1437,-1.1441,-1.1441,-1.1441,-1.1443,-1.144,-1.1436,-1.1437,-1.1437,-1.1437,-1.1437,-1.1437,-1.1437,-1.1212,-1.1229,-1.1239,-1.1263,-1.1276,-1.1294,-1.1303,-1.1316,-1.133,-1.1352,-1.1367,-1.1378,-1.1395,-1.1415,-1.1431,-1.1436,-1.1442,-1.1441,-1.1447,-1.1443,-1.1443,-1.1444,-1.144,-1.1442,-1.1442,-1.1449,-1.1449,-1.1449]},{"header":{"parameterUnit":"m.s-1","parameterCategory":1,"la1":30.2991,"la2":30.254,"lo1":-89.0895,"lo2":-89.0444,"dy":0.0017,"dx":0.0017,"nx":28,"ny":28,"refTime":"2025-03-13T09:00:00:Z","depth":0,"parameterNumber":3,"parameterNumberName":"V-component_of_WINDS"},"data":[0,0,0,0,0,0,0,0,0,0,0,0,0,0,0,0,0,0,0,0,0,0,0,0,0,0,0,0,0,0,0,0,0,0,0,0,0,0,0,0,0,0,0,0,0,0,0,0,0,0,0,0,0,0,0,0,0,0,3.1837,3.1838,0,3.1923,3.1924,3.1925,3.1927,3.1926,3.1925,3.1924,3.2012,3.2015,3.2019,0,0,0,0,0,0,0,0,0,0,0,0,0,3.1674,3.1677,3.1837,3.1838,3.1839,3.1923,3.1924,3.1925,3.1927,3.1926,3.1925,3.1923,3.2011,3.2015,3.2019,0,0,0,0,0,0,0,0,0,0,0,0,0,3.1751,3.1678,3.1836,3.185,3.1852,3.1923,3.1924,3.1926,3.1928,3.1926,3.1924,3.1923,3.201,3.2014,3.2019,3.2082,0,0,3.2035,3.2037,0,0,0,0,0,0,0,0,3.1746,3.1757,3.1847,3.1849,3.1852,3.1913,3.1899,3.1978,3.1928,3.1899,3.1924,3.1922,3.198,3.1988,3.2007,3.2086,3.209,3.2035,3.2038,3.204,3.2042,0,0,0,0,0,0,0,3.1741,3.1753,3.1871,3.1848,3.1851,3.1852,3.1861,3.1914,3.1947,3.1901,3.1902,3.1912,3.1981,3.2002,3.2009,3.2091,3.2035,3.2039,3.2043,3.2045,3.2228,3.223,0,0,0,0,0,0,3.1733,3.1749,3.1868,3.1873,3.1794,3.1856,3.1866,3.1895,3.1947,3.1953,3.1913,3.1912,3.1995,3.2003,3.2012,3.2091,3.204,3.2045,3.2048,3.2226,3.2229,3.2231,0,0,0,0,0,0,3.173,3.1744,3.1865,3.1811,3.1827,3.1861,3.1892,3.1897,3.1918,3.1956,3.1962,3.1929,3.1994,3.2005,3.2065,3.2094,3.2047,3.2052,3.2224,3.2227,3.223,3.2247,0,0,0,0,0,0,3.1725,3.1742,3.1766,3.1812,3.1829,3.1916,3.1894,3.19,3.1927,3.1926,3.1972,3.1978,3.1993,3.2058,3.207,3.21,3.2056,3.2222,3.2225,3.2229,3.2244,3.225,3.2256,0,0,0,0,0,3.1719,3.1768,3.1768,3.1782,3.186,3.1917,3.1928,3.1944,3.1929,3.1954,3.1978,3.1977,3.2088,3.2064,3.2078,3.211,3.222,3.2224,3.2229,3.2242,3.2249,3.2255,0,0,0,0,0,0,3.1724,3.1774,3.1774,3.1839,3.1874,3.1918,3.1949,3.1951,3.1991,3.1989,3.2008,3.2018,3.2078,3.21,3.2071,3.2174,3.2153,3.216,3.2158,3.2165,3.2171,3.2165,3.206,0,0,0,0,0,3.1733,3.1776,3.1816,3.1869,3.1887,3.1915,3.1941,3.1951,3.1988,3.2003,3.2031,3.2067,3.2111,3.2139,3.2181,3.2247,3.2258,3.2276,3.2281,3.2286,3.2292,3.2331,3.2339,3.2245,3.2245,3.2244,0,0,3.1752,3.1784,3.1809,3.1871,3.19,3.1944,3.1928,3.1974,3.2007,3.201,3.2069,3.2091,3.2132,3.2196,3.2226,3.2216,3.2321,3.2291,3.2294,3.2299,3.2336,3.2345,3.2353,3.2247,3.2247,3.2246,0,0,3.1808,3.1836,3.1884,3.1913,3.1957,3.1975,3.1987,3.203,3.2046,3.2105,3.2108,3.2147,3.2221,3.2251,3.2276,3.2345,3.2346,3.2358,3.2388,3.2425,3.2432,3.2439,3.2465,3.2474,3.2364,3.2364,3.2364,0,3.1826,3.1892,3.1909,3.1956,3.1984,3.1988,3.2037,3.2065,3.2119,3.2139,3.2127,3.2221,3.2249,3.2321,3.2338,3.2357,3.2372,3.2353,3.243,3.2437,3.2444,3.2469,3.2478,3.2366,3.2365,3.2365,3.2365,0,3.1912,3.1958,3.1992,3.2045,3.2077,3.2124,3.2149,3.2179,3.2186,3.2206,3.2267,3.2301,3.235,3.2368,3.2375,3.2441,3.2434,3.2426,3.2405,3.2454,3.2478,3.2487,3.2367,3.2367,3.2367,3.2366,0,0,3.1975,3.2038,3.205,3.2075,3.2123,3.2159,3.2208,3.2257,3.2282,3.232,3.2362,3.2425,3.2418,3.2446,3.2457,3.2489,3.2544,3.2478,3.2479,3.249,3.2621,3.2628,3.2638,3.2544,3.2546,3.2547,3.2618,0,3.2038,3.2125,3.2141,3.2217,3.226,3.2265,3.2308,3.2342,3.2362,3.2402,3.2424,3.2469,3.2456,3.2473,3.2505,3.253,3.2571,3.2525,3.2584,3.2586,3.2575,3.2651,3.2658,3.2723,3.2627,3.2628,3.263,0,3.2123,3.2164,3.2244,3.2288,3.2306,3.2344,3.2391,3.2429,3.2468,3.2481,3.2513,3.252,3.2572,3.2547,3.2619,3.2588,3.2613,3.2629,3.2632,3.2639,3.2612,3.2661,3.2743,3.2754,3.2644,3.2643,3.2642,0,3.2163,3.2237,3.2295,3.2316,3.2368,3.2395,3.2418,3.2456,3.2485,3.2526,3.2545,3.2591,3.2616,3.2652,3.2672,3.2652,3.2743,3.272,3.2755,3.2755,3.2775,3.2774,3.2864,3.2789,3.2788,3.2788,3.2788,0,3.2233,3.2282,3.2314,3.235,3.2405,3.2424,3.2479,3.2501,3.2535,3.2576,3.2582,3.262,3.2643,3.2685,3.2701,3.2759,3.277,3.2782,3.2786,3.2782,3.2781,3.28,3.2797,3.2791,3.279,3.279,3.2789,0,3.2287,3.2311,3.2374,3.2419,3.2431,3.247,3.2508,3.2543,3.2563,3.2615,3.2628,3.2659,3.2709,3.2732,3.2793,3.2804,3.287,3.287,3.2857,3.2859,3.2893,3.2891,3.3,3.3016,3.2929,3.2929,3.293,0,3.2331,3.2369,3.2417,3.2445,3.2469,3.2513,3.2543,3.2563,3.2593,3.2642,3.2672,3.2721,3.2762,3.2841,3.287,3.2917,3.2919,3.2954,3.2926,3.2922,3.2922,3.292,3.2924,3.296,3.296,3.2961,3.2962,0,3.2406,3.2416,3.2459,3.2506,3.2541,3.2578,3.2615,3.2638,3.2663,3.2698,3.2748,3.278,3.2843,3.2893,3.2942,3.2966,3.2969,3.297,3.2981,3.2979,3.297,3.2977,3.2872,3.2968,3.2967,3.2967,3.2966,3.2966,3.2458,3.2493,3.2533,3.258,3.261,3.2645,3.268,3.2705,3.2748,3.28,3.2809,3.2864,3.2903,3.297,3.2995,3.3039,3.3031,3.3046,3.305,3.3054,3.3057,3.2962,3.3047,3.3047,3.3047,3.3047,3.3047,0,3.2536,3.2561,3.2605,3.2657,3.2694,3.2693,3.2734,3.2766,3.2814,3.285,3.289,3.2949,3.2998,3.303,3.308,3.3108,3.3111,3.3121,3.312,3.3125,3.3061,3.3047,3.3118,3.3118,3.3118,3.3118,3.3118,3.3118,3.258,3.2639,3.2654,3.2728,3.2754,3.2807,3.2831,3.2864,3.2893,3.2959,3.2999,3.302,3.3055,3.3107,3.3152,3.316,3.3179,3.3189,3.3198,3.3137,3.313,3.3123,3.311,3.3193,3.3193,3.3259,3.326,3.326]}]]